Temp
11 10 11 10 9 10 11 12 11 11 11 11 11 11 11 10 10 10 10 10 9 10 10 10 9 9 9 9 9 9 9 9 9 9 9 8 8 8 8 8 8 8 8 8 9 9 8 9 9
10 10 10 10 10 11 12 12 11 11 12 11 11 11 11 11 11 11 10 10 9 9 10 10 9 9 9 9 9 9 9 9 9 9 9 9 9 8 8 8 8 8 8 8 8 8 9 8 9
11 10 10 10 11 12 11 12 11 11 12 11 11 10 10 10 10 10 10 7 7 8 10 10 10 9 9 10 9 9 9 9 9 9 9 9 8 8 8 8 8 8 8 9 8 8 8 8 8
10 10 10 11 11 11 11 11 11 11 11 11 10 11 11 9 9 9 9 7 7 6 10 10 10 9 9 9 9 9 9 9 9 9 9 9 9 8 8 8 8 9 9 8 8 8 8 8 8
10 10 10 11 11 11 10 11 11 11 11 10 10 11 11 9 8 9 8 7 8 7 10 10 10 9 9 9 9 9 9 9 9 9 9 9 9 9 9 9 8 8 8 8 8 8 8 8 8
10 10 10 12 12 11 10 11 11 10 11 11 11 11 11 10 9 8 8 8 8 8 10 10 10 9 9 9 9 9 9 9 9 9 9 9 9 9 9 8 8 8 8 8 8 8 8 8 8
10 10 11 12 12 11 11 11 11 11 11 11 10 10 11 10 9 7 8 8 8 7 10 10 9 9 9 9 9 9 9 9 9 9 9 9 9 9 9 8 8 8 8 8 8 8 8 8 8
10 10 12 12 13 11 11 11 11 11 11 10 10 11 11 11 9 7 8 8 8 7 10 9 9 9 9 9 9 9 9 9 9 9 9 9 9 8 8 8 8 8 8 8 8 8 8 8 8
10 11 12 11 12 12 12 12 11 11 12 11 11 10 12 11 9 7 8 8 8 7 6 6 7 9 9 9 9 9 9 9 9 9 9 8 8 8 8 8 8 8 8 8 8 8 8 8 8
10 12 12 13 12 12 11 12 12 12 11 11 10 10 12 11 9 7 8 8 8 7 7 6 6 8 9 9 9 9 9 9 9 9 9 8 7 8 8 8 8 8 8 8 8 8 8 8 7
11 12 13 12 12 12 11 12 11 11 12 11 10 13 12 9 8 8 8 8 8 7 7 7 6 9 6 9 9 9 8 8 9 9 7 8 8 8 8 8 8 8 7 8 8 8 8 8 8
12 13 13 12 11 12 12 11 12 12 12 11 11 12 12 9 8 8 8 8 7 7 7 7 6 9 7 8 8 7 9 8 9 9 9 8 8 8 7 8 8 7 8 8 8 8 8 8 7
12 13 12 12 12 12 12 13 11 12 12 11 12 13 12 8 8 8 8 8 7 7 7 6 9 10 9 9 7 7 6 6 6 9 9 8 8 8 7 8 9 8 7 6 7 7 6 8 7
14 13 12 12 13 13 13 13 13 13 12 12 12 13 11 8 8 8 8 8 7 7 7 8 10 10 10 8 7 7 6 6 6 8 9 9 8 8 8 8 8 8 8 8 7 7 7 8 7
13 13 13 12 12 13 14 14 14 12 12 11 12 11 9 9 9 8 8 8 8 8 8 10 10 10 10 8 9 8 7 6 7 7 8 9 8 8 9 9 7 8 8 8 8 7 6 6 6
12 13 14 14 13 13 13 15 15 13 12 11 10 9 9 9 9 8 8 8 7 8 10 10 9 10 10 10 9 8 8 7 8 8 9 9 8 8 9 9 8 7 8 7 8 6 6 6 6
14 15 15 15 14 14 13 14 13 13 13 12 11 10 9 9 9 8 8 8 7 9 10 10 9 9 10 10 9 9 8 7 7 8 8 9 8 8 8 9 9 8 7 7 6 6 7 6 6
16 15 17 16 14 14 14 14 10 14 14 12 11 10 10 9 9 8 8 8 7 10 10 10 10 10 9 10 9 9 9 8 8 8 9 9 8 8 8 8 8 8 8 6 6 6 6 6 7
16 17 17 18 16 15 15 14 11 14 14 13 11 10 10 10 9 9 9 8 8 10 10 10 10 10 10 10 10 9 8 8 9 7 8 9 9 9 8 8 8 8 8 8 8 7 7 6 7
14 15 17 17 16 15 14 15 15 14 14 13 12 11 10 10 9 9 10 8 9 11 11 11 10 10 10 10 10 9 7 6 6 6 9 9 9 9 9 8 9 9 8 8 7 7 7 6 6
13 14 15 16 16 15 15 15 16 14 15 14 12 11 11 10 10 10 11 10 10 11 11 11 11 11 10 10 10 10 9 7 7 7 9 9 9 9 9 9 9 8 8 8 8 7 7 7 6
13 14 14 15 16 17 16 16 15 14 15 14 13 12 12 11 10 10 11 11 11 11 11 11 11 11 11 10 10 10 10 9 7 8 7 9 9 9 10 9 9 9 8 9 8 7 8 8 6
13 13 14 14 14 15 16 16 18 17 14 15 14 13 12 11 12 13 13 12 12 11 12 12 11 11 11 11 10 10 10 10 8 7 7 8 10 9 10 10 9 9 9 9 9 8 8 7 7
12 12 13 13 14 15 15 16 17 16 16 15 15 14 13 12 11 12 13 13 12 11 12 12 12 12 11 11 11 10 10 10 8 8 8 10 9 10 10 10 10 9 9 9 9 9 9 9 8
11 12 13 14 15 16 16 16 18 18 16 16 16 15 14 13 12 12 12 13 13 12 12 12 12 12 12 12 11 11 10 10 10 10 9 8 7 7 10 10 10 10 10 10 9 10 10 9 9
11 12 14 15 17 18 16 17 17 18 17 16 14 15 15 14 13 12 14 15 14 14 13 13 12 12 12 12 12 12 11 10 10 10 10 10 7 7 8 10 11 11 11 10 10 10 10 10 10
12 12 13 15 16 18 18 17 17 17 17 16 14 17 14 15 14 13 13 14 15 15 14 14 14 13 12 12 12 12 12 11 11 11 10 11 10 8 10 11 11 11 11 11 11 11 10 10 10
10 12 12 13 15 16 18 19 18 17 17 17 16 16 15 14 15 14 12 14 15 15 14 14 14 14 13 12 13 12 12 12 11 11 11 11 11 10 10 11 11 11 11 12 11 11 11 11 11
10 10 11 13 13 16 17 19 18 18 17 16 16 16 16 15 15 14 13 13 15 15 15 14 14 14 13 13 13 13 13 12 12 12 11 11 11 11 11 11 11 11 12 12 12 12 11 11 11
9 11 11 12 13 14 15 17 18 18 17 16 16 16 16 16 16 15 14 13 12 15 15 15 15 14 14 14 14 13 13 13 12 12 12 12 11 12 11 11 12 12 12 12 12 12 12 12 12
Height
3156 3156 3157 3159 3165 3161 3158 3159 3158 3161 3163 3164 3167 3169 3169 3168 3171 3177 3178 3180 3183 3185 3188 3190 3191 3194 3196 3198 3199 3200 3201 3203 3203 3205 3205 3206 3206 3207 3207 3207 3206 3207 3206 3207 3207 3207 3207 3207 3207
3155 3156 3158 3159 3161 3157 3157 3158 3160 3162 3165 3167 3170 3170 3171 3171 3171 3173 3177 3182 3184 3188 3190 3192 3194 3196 3198 3200 3201 3202 3203 3205 3206 3207 3207 3208 3209 3209 3209 3209 3208 3208 3209 3209 3209 3209 3208 3209 3209
3157 3157 3160 3158 3159 3156 3149 3158 3161 3164 3167 3167 3170 3170 3171 3173 3172 3175 3180 3184 3189 3190 3192 3193 3195 3198 3200 3201 3203 3204 3205 3207 3208 3208 3209 3210 3210 3210 3210 3210 3211 3211 3210 3211 3211 3210 3210 3209 3209
3158 3159 3161 3159 3157 3158 3157 3159 3163 3165 3167 3167 3171 3171 3173 3175 3176 3178 3182 3188 3194 3193 3193 3195 3197 3199 3202 3203 3205 3206 3207 3208 3209 3210 3211 3212 3212 3212 3212 3212 3212 3212 3212 3211 3211 3211 3211 3210 3211
3159 3160 3159 3157 3157 3157 3158 3159 3160 3166 3166 3169 3170 3171 3173 3175 3178 3181 3185 3192 3198 3196 3195 3196 3198 3201 3203 3205 3207 3208 3209 3210 3211 3213 3213 3214 3213 3214 3213 3213 3213 3213 3213 3213 3214 3214 3213 3214 3215
3160 3161 3160 3157 3157 3156 3158 3159 3161 3164 3166 3170 3171 3172 3174 3176 3179 3184 3190 3196 3199 3195 3196 3198 3200 3203 3205 3207 3209 3210 3212 3213 3214 3214 3216 3216 3215 3215 3214 3214 3213 3214 3215 3215 3216 3216 3216 3216 3217
3159 3161 3158 3158 3158 3154 3157 3158 3161 3166 3168 3170 3173 3172 3174 3176 3179 3185 3193 3197 3199 3199 3197 3199 3201 3204 3206 3208 3210 3212 3214 3215 3215 3217 3218 3217 3216 3216 3216 3216 3216 3216 3217 3218 3219 3219 3218 3219 3220
3160 3161 3158 3158 3159 3152 3158 3159 3160 3165 3167 3171 3171 3172 3174 3175 3179 3186 3194 3198 3201 3202 3198 3200 3202 3205 3207 3210 3211 3213 3215 3217 3217 3219 3219 3219 3219 3220 3219 3220 3220 3220 3220 3221 3222 3222 3222 3223 3223
3161 3161 3158 3156 3159 3159 3158 3160 3163 3163 3168 3169 3172 3172 3172 3174 3179 3187 3193 3198 3200 3201 3202 3203 3204 3206 3209 3211 3213 3215 3217 3219 3219 3220 3221 3222 3223 3223 3223 3223 3223 3223 3223 3224 3224 3225 3225 3226 3227
3160 3161 3157 3159 3157 3160 3161 3160 3160 3164 3167 3171 3171 3169 3171 3173 3179 3185 3193 3197 3201 3203 3207 3207 3208 3208 3210 3212 3214 3216 3218 3220 3221 3222 3223 3224 3226 3226 3227 3227 3227 3226 3227 3227 3228 3228 3228 3229 3232
3162 3162 3160 3159 3159 3159 3160 3160 3154 3165 3169 3169 3170 3167 3170 3174 3180 3188 3194 3197 3202 3204 3208 3209 3207 3208 3212 3213 3216 3218 3220 3223 3223 3224 3226 3227 3228 3228 3230 3230 3229 3230 3229 3230 3231 3228 3230 3233 3235
3163 3163 3161 3158 3160 3159 3160 3159 3162 3163 3164 3168 3167 3168 3170 3175 3183 3190 3195 3198 3201 3204 3207 3209 3207 3208 3215 3215 3217 3220 3219 3226 3224 3224 3227 3229 3229 3230 3227 3230 3231 3229 3231 3232 3232 3227 3231 3234 3231
3162 3162 3161 3161 3161 3161 3161 3160 3142 3160 3164 3166 3167 3168 3171 3177 3185 3191 3197 3199 3201 3204 3205 3208 3206 3210 3212 3215 3219 3223 3225 3228 3227 3226 3228 3230 3230 3232 3232 3233 3230 3232 3232 3235 3232 3234 3233 3236 3236
3161 3161 3159 3159 3162 3163 3163 3162 3165 3164 3165 3166 3167 3169 3172 3178 3185 3190 3195 3198 3200 3203 3204 3205 3208 3211 3213 3215 3218 3221 3224 3228 3227 3227 3229 3231 3232 3230 3233 3235 3234 3234 3234 3236 3233 3236 3237 3237 3238
3158 3160 3160 3157 3159 3161 3162 3162 3164 3161 3164 3165 3167 3170 3175 3181 3186 3189 3193 3197 3199 3202 3204 3206 3208 3211 3214 3217 3219 3221 3224 3228 3228 3230 3231 3232 3233 3234 3233 3235 3235 3233 3234 3236 3237 3236 3238 3241 3239
3155 3157 3156 3157 3157 3159 3160 3158 3161 3162 3164 3165 3167 3170 3175 3181 3186 3188 3193 3196 3199 3201 3203 3206 3209 3212 3215 3217 3219 3222 3224 3228 3230 3231 3232 3233 3234 3236 3235 3235 3236 3236 3235 3235 3234 3238 3240 3242 3242
3151 3150 3152 3153 3153 3156 3157 3156 3153 3162 3165 3165 3167 3170 3174 3180 3185 3187 3191 3194 3198 3200 3202 3205 3208 3212 3215 3217 3219 3222 3224 3228 3230 3231 3232 3234 3235 3236 3236 3237 3235 3235 3235 3235 3238 3239 3240 3242 3243
3146 3148 3146 3148 3151 3152 3154 3157 3139 3164 3165 3163 3165 3169 3172 3177 3181 3184 3189 3192 3196 3198 3201 3205 3207 3211 3214 3217 3219 3222 3225 3229 3231 3233 3232 3234 3236 3237 3236 3237 3238 3237 3237 3239 3238 3239 3239 3243 3244
3143 3143 3145 3144 3147 3150 3150 3152 3129 3161 3165 3161 3163 3167 3171 3175 3180 3182 3186 3190 3194 3195 3199 3202 3206 3209 3213 3216 3219 3222 3225 3228 3231 3232 3234 3235 3236 3237 3238 3238 3238 3238 3237 3236 3239 3240 3241 3244 3243
3143 3144 3142 3144 3145 3148 3149 3150 3152 3155 3157 3158 3161 3165 3169 3174 3178 3180 3183 3187 3191 3193 3197 3201 3204 3208 3212 3215 3219 3221 3226 3228 3231 3232 3233 3234 3236 3237 3237 3238 3238 3239 3240 3240 3240 3239 3240 3244 3244
3141 3142 3143 3142 3143 3145 3147 3147 3148 3147 3149 3156 3161 3164 3168 3170 3173 3176 3180 3184 3187 3190 3194 3199 3203 3207 3211 3214 3217 3220 3223 3227 3228 3232 3232 3233 3235 3236 3237 3238 3239 3240 3239 3240 3240 3240 3241 3244 3245
3137 3140 3142 3143 3141 3141 3145 3143 3141 3139 3142 3151 3158 3162 3165 3168 3171 3174 3177 3180 3184 3188 3192 3196 3200 3205 3209 3212 3215 3218 3222 3225 3228 3231 3232 3232 3234 3236 3237 3239 3239 3240 3241 3241 3241 3241 3241 3244 3246
3135 3138 3140 3142 3142 3141 3138 3139 3133 3140 3143 3146 3155 3159 3163 3164 3167 3170 3173 3178 3181 3185 3189 3193 3197 3201 3205 3210 3213 3217 3220 3223 3226 3231 3232 3233 3234 3236 3237 3238 3240 3240 3241 3241 3241 3242 3243 3243 3245
3134 3136 3137 3138 3139 3135 3133 3134 3130 3131 3138 3142 3150 3155 3159 3161 3164 3167 3171 3174 3178 3182 3185 3189 3193 3198 3202 3206 3210 3214 3218 3221 3225 3228 3230 3231 3233 3234 3236 3237 3238 3240 3240 3242 3243 3242 3243 3243 3245
3129 3131 3131 3132 3129 3120 3127 3128 3124 3126 3135 3139 3140 3147 3153 3157 3160 3163 3165 3169 3174 3177 3181 3185 3188 3193 3199 3203 3206 3211 3215 3219 3223 3225 3228 3230 3234 3235 3235 3237 3239 3240 3240 3241 3242 3243 3244 3244 3245
3120 3124 3120 3116 3111 3111 3120 3113 3119 3127 3130 3131 3133 3138 3146 3152 3156 3158 3161 3165 3169 3173 3177 3181 3184 3189 3193 3198 3203 3207 3212 3216 3219 3223 3225 3228 3233 3235 3233 3236 3238 3239 3240 3241 3242 3243 3244 3245 3246
3113 3115 3119 3116 3109 3102 3103 3111 3120 3124 3127 3127 3131 3133 3137 3142 3150 3154 3157 3160 3165 3169 3173 3176 3180 3186 3189 3193 3199 3203 3208 3212 3215 3219 3223 3225 3228 3232 3232 3235 3237 3238 3238 3240 3241 3242 3244 3246 3247
3110 3112 3115 3113 3108 3099 3097 3097 3103 3114 3119 3125 3129 3131 3131 3132 3142 3150 3153 3156 3160 3165 3169 3173 3176 3180 3185 3189 3193 3198 3203 3207 3211 3216 3219 3222 3225 3228 3229 3232 3234 3236 3237 3239 3241 3242 3243 3246 3248
3107 3104 3105 3105 3106 3100 3099 3092 3101 3105 3113 3119 3124 3129 3131 3131 3137 3146 3150 3152 3155 3159 3163 3168 3172 3175 3179 3183 3187 3192 3197 3202 3206 3210 3214 3218 3222 3224 3227 3230 3232 3234 3236 3237 3239 3240 3242 3244 3247
3100 3099 3103 3100 3098 3097 3099 3095 3099 3102 3106 3114 3119 3124 3129 3134 3138 3143 3148 3150 3151 3154 3158 3163 3167 3171 3175 3178 3182 3186 3191 3196 3201 3204 3209 3213 3217 3220 3224 3227 3229 3231 3233 3235 3237 3238 3239 3241 3244
Wind_Speed
5 5 6 7 3 7 8 3 7 14 11 7 14 8 9 9 6 11 32 30 30 27 25 23 23 21 20 18 16 15 14 13 12 11 10 8 7 7 7 8 8 7 7 6 5 5 6 4 5
4 6 6 6 4 9 6 7 10 12 11 16 11 13 9 10 1 16 32 29 26 25 23 22 22 20 20 17 16 14 14 13 11 10 9 7 6 6 7 6 6 5 5 5 6 5 5 5 4
5 5 4 4 5 6 4 10 11 15 17 19 16 12 11 9 7 30 31 28 23 23 21 21 21 20 19 17 14 14 14 13 11 11 9 7 6 6 6 4 3 3 3 5 5 5 4 4 5
4 3 3 6 8 6 3 9 13 18 16 15 14 10 9 9 15 28 29 26 21 19 20 19 19 19 18 16 14 13 13 13 12 11 9 8 7 5 4 2 2 2 4 5 6 6 5 6 9
3 3 6 6 6 8 6 10 23 17 16 16 11 11 11 14 17 27 27 25 21 18 19 18 18 18 17 15 14 13 14 13 12 11 9 7 5 4 2 2 3 6 8 8 9 9 8 11 12
4 4 7 10 2 5 11 15 22 20 16 14 6 11 10 13 21 28 26 24 21 19 20 18 18 18 17 15 14 14 14 13 12 11 9 7 6 5 6 7 7 9 11 11 10 11 13 13 15
5 8 11 3 0 9 15 18 14 12 11 10 8 8 8 12 26 28 26 24 20 17 19 17 19 18 17 15 14 14 14 13 11 11 10 10 10 11 11 10 11 11 13 12 12 13 14 16 15
5 6 7 0 4 18 15 8 9 11 10 8 9 6 8 13 33 30 27 24 20 18 19 18 19 19 18 15 14 14 14 12 11 12 12 13 13 13 13 13 13 12 12 12 12 14 16 16 16
5 5 8 3 7 6 12 11 11 11 7 7 10 4 6 16 35 31 29 25 22 18 17 16 17 20 18 16 15 14 13 11 10 12 13 12 14 13 12 12 13 14 13 12 12 12 15 16 14
7 7 5 4 4 11 13 12 14 6 5 7 9 11 6 23 36 33 29 27 24 18 18 15 18 20 19 17 15 15 13 10 10 12 13 12 11 12 12 11 11 12 12 11 11 11 11 17 13
6 9 9 2 5 15 17 14 16 9 9 9 12 10 11 30 33 29 27 25 24 19 20 17 19 21 17 17 16 15 11 10 10 11 15 11 12 10 11 11 9 10 8 8 10 10 14 11 9
12 11 12 3 7 17 8 4 10 6 14 11 10 8 14 30 31 30 27 25 25 21 22 18 19 20 17 19 13 14 2 8 10 10 11 10 10 7 3 3 9 13 2 6 7 7 7 10 10
17 10 7 6 8 11 4 12 8 6 12 12 5 9 18 31 30 29 25 24 24 22 21 20 20 20 20 19 17 11 13 10 9 9 9 13 4 5 6 7 6 4 7 5 6 8 3 8 5
8 14 12 13 11 8 10 10 6 9 11 8 4 7 21 29 29 29 28 26 25 22 19 20 19 19 20 21 19 15 15 13 10 10 9 10 11 6 3 7 3 5 5 6 5 7 7 6 4
18 10 16 12 17 10 9 12 14 19 16 10 7 12 25 28 27 29 28 27 25 22 20 19 19 19 19 18 16 15 9 10 8 9 9 8 9 8 7 4 4 5 6 3 4 5 12 4 3
19 17 18 17 23 15 12 14 19 16 18 17 16 19 27 29 27 28 28 27 24 23 21 21 20 19 18 16 16 19 12 11 12 9 9 8 7 8 8 6 6 7 4 1 5 11 10 6 2
19 19 21 16 21 19 17 10 19 20 17 17 18 21 27 30 29 28 28 27 26 24 23 24 22 20 17 15 14 17 15 15 10 8 7 7 6 6 5 8 5 3 12 5 10 6 10 8 5
21 22 20 20 23 24 22 17 25 19 17 17 20 21 27 31 31 29 30 28 27 26 24 25 23 21 19 17 14 18 15 16 13 9 5 6 5 5 5 2 6 5 11 5 4 9 6 13 12
17 19 22 20 20 19 22 21 31 20 18 18 20 22 27 30 30 29 30 30 29 28 26 27 26 23 21 18 16 14 14 16 11 11 12 6 5 5 3 2 5 8 1 8 1 9 11 10 11
22 18 18 22 17 19 21 21 18 21 18 18 19 22 26 28 31 30 32 31 31 29 27 27 26 24 21 20 18 16 15 12 12 10 9 6 5 5 3 3 3 3 6 3 3 10 6 6 12
23 23 19 18 17 20 17 18 22 24 23 20 19 20 23 28 31 32 32 33 32 31 29 27 27 24 23 23 22 20 19 17 14 11 11 8 6 6 5 4 2 3 3 4 3 4 11 7 6
24 22 22 21 21 19 26 20 26 30 27 23 22 23 23 24 29 31 32 33 32 30 30 28 28 27 25 24 24 22 18 15 13 13 10 9 7 7 7 6 3 1 5 1 2 2 12 8 4
24 19 20 23 25 22 25 32 26 29 27 29 25 25 24 25 22 24 26 29 31 32 30 29 29 29 28 26 25 23 21 18 14 13 18 13 9 8 8 8 6 3 2 0 1 3 2 12 13
22 21 20 20 25 26 34 27 35 35 30 32 30 28 27 26 27 24 19 27 31 32 32 31 30 30 30 29 28 26 25 22 18 17 17 16 12 10 9 8 6 5 4 2 2 1 2 5 13
23 22 22 18 19 21 36 38 32 28 32 33 35 34 30 27 28 27 26 22 23 30 31 33 32 31 31 31 31 29 27 25 22 20 19 15 12 11 11 10 9 9 8 5 3 1 3 3 5
34 32 26 22 15 21 35 40 43 31 24 30 45 40 34 29 28 29 24 23 21 22 27 30 32 32 32 33 32 31 30 28 26 24 22 20 16 15 18 13 11 10 8 7 7 6 4 4 4
30 38 36 34 34 25 32 38 35 38 36 23 15 27 36 34 31 30 28 27 25 24 21 26 29 29 32 31 32 33 33 32 30 28 26 23 21 19 20 14 13 12 11 10 9 8 7 6 6
32 28 33 38 24 27 28 31 36 40 38 40 31 24 29 38 31 29 30 28 24 25 25 24 22 28 29 32 31 32 35 34 33 30 29 26 24 22 21 17 16 14 12 11 10 10 10 8 8
27 35 31 29 43 21 19 26 27 27 35 36 37 33 30 25 25 26 29 28 27 28 29 26 28 21 28 31 31 31 33 36 36 34 32 30 27 25 23 20 19 17 15 14 13 13 13 12 11
30 31 36 36 31 41 39 28 22 20 25 33 33 35 37 30 28 28 27 29 30 29 30 29 25 27 21 26 29 31 32 34 36 36 33 32 31 28 24 23 22 20 18 16 15 16 17 15 15
Wind_Direction
109 130 148 168 188 231 259 97 99 119 121 125 132 139 146 126 146 140 149 145 141 135 133 134 134 136 134 133 132 133 137 141 142 142 141 139 127 110 102 96 86 81 88 82 91 100 104 108 142
115 99 128 169 222 234 200 126 127 132 121 126 127 124 114 130 222 158 156 150 139 138 135 135 134 136 135 135 134 139 141 141 139 138 138 134 125 119 125 104 93 92 89 88 90 81 70 82 107
125 103 138 211 239 273 89 125 125 122 134 144 127 125 145 127 82 149 157 146 139 142 141 136 136 136 134 131 132 136 136 132 134 138 131 114 125 120 122 111 101 85 85 85 84 78 76 75 121
111 150 239 247 250 274 149 139 128 135 144 136 121 126 144 121 128 160 157 142 141 149 140 138 137 138 135 133 132 128 128 127 127 125 121 114 113 118 115 129 125 114 114 108 93 86 75 84 116
155 239 264 277 268 247 168 158 143 153 142 133 141 140 135 144 146 159 151 142 148 159 143 142 140 141 137 135 127 127 123 124 121 117 114 107 103 102 74 64 104 118 119 112 96 84 88 93 102
220 279 274 299 226 162 161 160 153 163 155 148 140 133 137 147 164 156 148 149 150 160 149 147 145 146 142 135 130 125 126 121 117 110 103 96 82 83 79 70 86 114 119 115 103 95 89 94 106
232 275 282 317 2 179 168 140 159 155 168 152 166 166 148 164 160 156 150 154 159 149 152 151 150 148 145 139 133 130 126 119 119 108 103 90 79 87 90 88 98 113 117 116 101 98 93 92 95
317 281 278 268 179 130 130 165 146 173 164 162 180 223 203 172 162 155 154 158 160 164 158 157 154 152 150 146 139 132 125 121 117 112 103 89 88 87 91 90 92 106 114 114 107 99 94 93 94
237 277 282 193 183 149 190 196 171 145 141 168 173 250 167 170 163 159 158 164 160 182 152 156 155 156 155 150 144 133 128 126 122 113 108 98 90 89 92 87 93 93 100 104 108 103 97 91 84
213 258 324 25 171 153 142 137 148 131 147 163 165 211 195 167 165 163 165 166 164 169 151 162 166 159 157 152 150 143 134 137 131 121 120 124 108 89 90 87 90 92 91 91 101 99 79 85 60
266 252 345 23 189 168 163 179 153 174 180 184 174 208 177 165 167 165 169 171 163 170 155 169 167 158 151 150 155 145 131 121 144 132 113 144 117 102 85 70 77 95 95 100 95 113 102 86 104
240 267 276 210 144 161 169 220 154 172 183 173 177 165 170 169 170 171 170 173 169 174 159 181 168 163 154 164 132 151 152 151 153 140 137 125 111 111 179 144 87 111 89 92 122 30 112 138 120
233 255 258 201 190 188 177 173 191 205 113 159 172 149 164 169 170 172 171 178 175 174 172 182 172 169 165 153 159 139 179 151 176 155 140 117 99 118 124 139 117 92 179 110 50 115 208 152 149
257 234 255 220 189 221 190 210 192 173 152 151 143 156 166 171 173 176 175 181 181 177 181 182 175 173 168 154 170 170 160 168 172 154 133 134 139 162 100 137 120 127 124 151 111 106 65 71 273
222 244 229 231 208 189 207 226 207 176 162 168 162 169 171 175 177 183 180 181 185 183 184 179 176 174 171 167 168 141 157 170 161 165 145 125 132 133 109 115 106 94 186 177 164 128 90 79 353
223 228 227 222 221 213 214 215 192 182 169 168 170 173 176 179 181 186 184 183 188 186 187 178 178 179 177 176 168 150 183 184 143 177 153 151 145 120 110 111 113 207 146 35 105 98 119 117 25
221 224 223 214 217 218 216 228 163 174 173 169 175 177 179 180 185 189 189 189 190 191 188 182 182 183 180 178 182 172 181 159 190 152 145 163 141 143 112 122 104 121 107 140 121 126 126 114 104
213 221 225 216 209 221 227 223 200 178 182 178 177 180 183 185 187 191 190 193 194 196 193 188 185 186 184 179 177 171 179 160 176 174 177 199 163 142 108 90 118 126 101 112 133 140 147 125 137
240 230 230 220 202 218 226 226 177 179 187 181 179 184 185 189 189 194 194 195 197 199 199 193 190 188 187 182 181 175 180 162 179 193 191 179 172 167 144 140 113 94 220 165 151 131 163 144 174
233 240 241 225 218 222 230 241 220 189 186 184 180 187 187 187 194 196 198 199 202 204 201 201 196 193 190 184 183 184 180 188 184 188 180 186 182 181 185 133 111 60 120 133 104 134 129 165 147
230 230 230 232 211 224 232 238 222 209 185 189 188 187 189 192 195 200 202 204 203 208 206 205 202 199 196 192 188 191 191 189 194 207 194 197 201 194 194 178 161 101 71 71 73 138 148 183 186
233 230 231 233 238 227 224 233 234 228 190 191 193 190 190 192 198 206 208 209 210 212 209 209 208 203 203 203 199 196 203 203 204 193 217 212 214 210 198 185 189 153 117 33 74 112 143 172 53
232 229 234 233 239 249 239 231 219 212 210 197 202 201 198 199 203 212 217 221 217 215 215 213 211 209 207 208 209 202 204 206 208 194 221 223 217 224 218 201 194 185 195 50 45 174 164 153 150
230 233 234 236 234 240 233 222 235 211 213 207 207 209 203 203 204 209 217 218 219 221 221 218 218 214 212 210 213 210 210 211 205 200 223 213 213 217 222 221 202 202 208 213 223 106 150 175 169
222 217 225 229 226 235 228 233 232 210 215 209 211 205 207 205 203 207 214 219 223 226 228 226 220 218 217 215 215 215 214 218 220 219 212 208 210 228 221 222 218 211 206 205 225 200 194 159 167
222 220 228 221 218 232 228 226 228 227 221 225 229 210 202 205 207 206 218 228 233 229 229 229 229 223 220 221 218 217 217 218 222 221 220 218 207 218 237 223 227 224 216 212 215 216 212 177 168
227 220 226 247 251 249 222 229 234 225 224 223 232 207 212 201 202 208 214 220 223 227 226 228 231 226 227 226 222 220 219 221 223 222 221 225 219 212 235 228 230 232 231 220 217 222 215 207 188
228 227 224 234 248 254 247 231 219 220 223 227 224 217 217 210 199 206 210 217 220 223 225 221 224 227 227 228 226 224 223 220 225 224 226 228 228 225 233 231 232 229 229 228 225 228 227 224 211
222 236 242 244 227 246 247 240 229 222 219 222 223 221 217 221 203 204 212 218 223 218 221 225 223 222 222 227 225 226 225 223 223 224 225 227 229 229 231 235 237 231 227 226 222 231 237 228 228
236 237 232 239 238 229 246 247 232 229 223 217 219 220 222 220 216 214 213 216 215 219 218 221 222 227 224 226 227 224 225 226 225 225 224 225 229 232 231 235 238 236 234 230 226 226 235 236 236